Location: Ferchesar
(52.6477°N, 12.4298°E)
Time: 06:47:13
(UTC+01:00)

Transit 2A Rocket - Pass Details

Date: 07 December 2021
Orbit: 585 x 917 km, 66.7° (Epoch: 25 January)

Event Time Altitude Azimuth Distance (km) Brightness Sun altitude
Rises 17:18:28 0° 310° (NW) 3,554 8.8 -11.6°
Reaches altitude 10° 17:22:29 10° 285° (WNW) 2,575 8.6 -12.2°
Maximum altitude 17:25:05 13° 259° (W) 2,324 8.8 -12.5°
Drops below altitude 10° 17:27:38 10° 233° (SW) 2,502 9.0 -12.9°
Sets 17:31:26 0° 207° (SSW) 3,364 9.1 -13.4°
